This is the latest recevied weather packets stored in our database for station/object WC4PEM-11. If no packets are shown the sender has not sent any weather packets the latest 10 day(s).
| Time | Temp. | Humidity | Pressure | Rain* | Wind** | Luminosity | Snow |
|---|---|---|---|---|---|---|---|
| 1777048090 | 28.33° C | 51% | 1014.5 hPa | 0 mm | - | - | - |
| 1777047812 | 28.33° C | 51% | 1014.5 hPa | 0 mm | - | - | - |
| 1777047512 | 28.33° C | 51% | 1014.5 hPa | 0 mm | - | - | - |
| 1777047212 | 28.33° C | 52% | 1014.5 hPa | 0 mm | - | - | - |
| 1777046912 | 27.78° C | 52% | 1014.6 hPa | 0 mm | - | - | - |
| 1777046612 | 27.78° C | 52% | 1014.6 hPa | 0 mm | - | - | - |
| 1777046315 | 27.78° C | 52% | 1014.7 hPa | 0 mm | - | - | - |
| 1777046013 | 27.78° C | 53% | 1014.8 hPa | 0 mm | - | - | - |
| 1777045713 | 27.22° C | 53% | 1014.8 hPa | 0 mm | - | - | - |
| 1777045412 | 27.78° C | 52% | 1014.9 hPa | 0 mm | - | - | - |
| 1777045113 | 27.78° C | 53% | 1014.9 hPa | 0 mm | - | - | - |
| 1777045095 | 27.22° C | 55% | 1014.9 hPa | 0 mm | - | - | - |
| 1777044813 | 27.22° C | 55% | 1014.9 hPa | 0 mm | - | - | - |
| 1777044658 | 27.22° C | 52% | 1014.9 hPa | 0 mm | - | - | - |
| 1777044513 | 27.22° C | 52% | 1014.9 hPa | 0 mm | - | - | - |
| 1777044213 | 27.22° C | 53% | 1015.1 hPa | 0 mm | - | - | - |
| 1777043913 | 26.11° C | 56% | 1015.2 hPa | 0 mm | - | - | - |
| 1777043613 | 25.56° C | 57% | 1015.2 hPa | 0 mm | - | - | - |
| 1777043313 | 25.56° C | 56% | 1015.3 hPa | 0 mm | - | - | - |
| 1777043013 | 26.11° C | 57% | 1015.4 hPa | 0 mm | - | - | - |
| 1777042713 | 26.11° C | 57% | 1015.4 hPa | 0 mm | - | - | - |
| 1777042463 | 25.56° C | 57% | 1015.5 hPa | 0 mm | - | - | - |
| 1777042413 | 25.56° C | 57% | 1015.5 hPa | 0 mm | - | - | - |
| 1777042113 | 25.56° C | 59% | 1015.5 hPa | 0 mm | - | - | - |
| 1777041953 | 25° C | 59% | 1015.5 hPa | 0 mm | - | - | - |
* Rain latest hour (hover to see other rain measurements)
** Current wind speed in m/s (hover to see current wind gust speed)